Terminal Aerodrome Forecast
Issued by NWS

Home | Current Version | Previous Version | Graphics & Text | Print | Product List | Glossary On
Versions: 1 2 3 4 5 6 7 8 9 10 11 12 13 14 15 16 17 18 19 20 21 22 23 24 25 26 27 28 29 30
000
FTUS43 KLOT 250913 AAA
TAFGYY
TAF AMD
KGYY 250913Z 2509/2606 01012KT 6SM -SHRA OVC006
     FM251000 04012KT 3SM -SHRA BR OVC005
      TEMPO 2513/2517 1SM -DZ BR OVC003
     FM251800 08012KT 3SM -SHRA BR OVC007
     FM260000 11009KT 2SM -RADZ BR BKN005 OVC010=

USA.gov is the U.S. government's official web portal to all federal, state and local government web resources and services.